Pittsfield, IL

11:29 PM CDT on September 28, 2016 (GMT -0500)
Pittsfield Penstone Municipal

Weather History for KPPQ - January, 2002

Change the Weather History Date:

Wednesday, January 23, 2002

  Actual Average (KUIN) Record (KUIN)
Temperature  
Mean Temperature 53 °F 26 °F  
Max Temperature 62 °F 35 °F 72 °F (1909)
Min Temperature 44 °F 18 °F -16 °F (1936)
Degree Days  
Heating Degree Days 12 39  
Month to date heating degree days 893  
Since 1 July heating degree days 3084  
Cooling Degree Days 0 0  
Month to date cooling degree days 0  
Year to date cooling degree days 0  
Growing Degree Days 3 (Base 50)    
Moisture  
Dew Point 51 °F    
Average Humidity 90    
Maximum Humidity 100    
Minimum Humidity 71    
Precipitation  
Precipitation 0.00 in 0.04 in 1.62 in (1969)
Month to date precipitation 1.14  
Year to date precipitation 1.14  
Sea Level Pressure  
Sea Level Pressure 29.77 in    
Wind  
Wind Speed 8 mph (SSW)    
Max Wind Speed 16 mph    
Max Gust Speed 23 mph    
Visibility 8 miles    
Events      
T = Trace of Precipitation, MM = Missing Value Source: NWS Daily Summary

Daily Weather History Graph

Daily Weather History Graph

Search for Another Location

Airport or City:

Trip Planner

Search our weather history database for the weather conditions in past years. The results will help you decide how hot, cold, wet, or windy it might be!

Date:

Astronomy

Jan. 23, 2002 Rise Set
Actual Time 7:18 AM CST 5:12 PM CST
Civil Twilight 6:49 AM CST 5:41 PM CST
Nautical Twilight 6:16 AM CST 6:14 PM CST
Astronomical Twilight 5:44 AM CST 6:46 PM CST
Moon 12:33 PM CST (1/23) 2:03 AM CST (1/23)
Length of Visible Light 10h 52m
Length of Day
9h 54m
Waxing Gibbous, 70% of the Moon is Illuminated
Jan 23
Waxing Gibbous
Jan 28
Full
Feb 4
Last Quarter
Feb 12
New
Feb 20
First Quarter

Hourly Weather History & Observations

Time (CST) Temp. Windchill Dew Point Humidity Pressure Visibility Wind Dir Wind Speed Gust Speed Precip Events Conditions
12:07 AM 48.2 °F - 46.4 °F 93% 29.76 in 10.0 mi South 5.8 mph - N/A   Overcast
12:27 AM 48.2 °F - 46.4 °F 93% 29.76 in 10.0 mi South 6.9 mph - N/A   Overcast
12:47 AM 48.2 °F - 48.2 °F 100% 29.75 in 10.0 mi South 6.9 mph - N/A   Overcast
1:08 AM 51.8 °F - 48.2 °F 88% 29.75 in 10.0 mi South 9.2 mph - N/A   Overcast
1:27 AM 51.8 °F - 50.0 °F 94% 29.75 in 10.0 mi South 8.1 mph - N/A   Overcast
1:47 AM 51.8 °F - 50.0 °F 94% 29.75 in 10.0 mi South 6.9 mph - N/A   Overcast
2:11 AM 51.8 °F - 50.0 °F 94% 29.75 in 10.0 mi South 6.9 mph - N/A   Overcast
2:27 AM 51.8 °F - 50.0 °F 94% 29.74 in 10.0 mi South 8.1 mph - N/A   Overcast
2:47 AM 51.8 °F - 50.0 °F 94% 29.74 in 7.0 mi South 6.9 mph - N/A   Overcast
3:07 AM 51.8 °F - 50.0 °F 94% 29.74 in 10.0 mi South 5.8 mph - N/A   Overcast
3:28 AM 51.8 °F - 51.8 °F 100% 29.73 in 7.0 mi South 5.8 mph - N/A   Overcast
3:47 AM 51.8 °F - 51.8 °F 100% 29.72 in 10.0 mi SSE 8.1 mph - N/A   Overcast
4:08 AM 51.8 °F - 51.8 °F 100% 29.72 in 7.0 mi South 5.8 mph - N/A   Overcast
4:27 AM 51.8 °F - 51.8 °F 100% 29.74 in 7.0 mi South 3.5 mph - N/A   Overcast
4:47 AM 51.8 °F - 51.8 °F 100% 29.75 in 7.0 mi SSE 3.5 mph - N/A   Overcast
5:09 AM 50.0 °F - 50.0 °F 100% 29.75 in 7.0 mi South 4.6 mph - N/A   Overcast
5:27 AM 48.2 °F - 48.2 °F 100% 29.74 in 7.0 mi SSE 5.8 mph - N/A   Overcast
5:47 AM 51.8 °F - 50.0 °F 94% 29.74 in 7.0 mi SSE 8.1 mph - N/A   Overcast
6:08 AM 51.8 °F - 51.8 °F 100% 29.74 in 7.0 mi South 9.2 mph - N/A   Overcast
6:27 AM 51.8 °F - 51.8 °F 100% 29.74 in 7.0 mi South 8.1 mph - N/A   Mostly Cloudy
6:46 AM 51.8 °F - 51.8 °F 100% 29.75 in 7.0 mi South 6.9 mph - N/A   Mostly Cloudy
7:07 AM 51.8 °F - 51.8 °F 100% 29.75 in 5.0 mi South 5.8 mph - N/A   Overcast
7:28 AM 51.8 °F - 51.8 °F 100% 29.75 in 5.0 mi South 5.8 mph - N/A   Overcast
7:47 AM 51.8 °F - 51.8 °F 100% 29.76 in 5.0 mi South 5.8 mph - N/A   Overcast
8:07 AM 51.8 °F - 51.8 °F 100% 29.77 in 5.0 mi South 6.9 mph - N/A   Overcast
8:27 AM 53.6 °F - 53.6 °F 100% 29.78 in 7.0 mi South 4.6 mph - N/A   Overcast
8:47 AM 53.6 °F - 53.6 °F 100% 29.77 in 7.0 mi South 5.8 mph - N/A   Overcast
9:07 AM 53.6 °F - 53.6 °F 100% 29.78 in 7.0 mi South 5.8 mph - N/A   Overcast
9:27 AM 53.6 °F - 53.6 °F 100% 29.79 in 7.0 mi South 9.2 mph - N/A   Overcast
9:47 AM 53.6 °F - 53.6 °F 100% 29.79 in 7.0 mi South 8.1 mph - N/A   Overcast
10:07 AM 55.4 °F - 55.4 °F 100% 29.79 in 7.0 mi South 6.9 mph - N/A   Overcast
10:27 AM 57.2 °F - 55.4 °F 94% 29.78 in 7.0 mi SSW 6.9 mph - N/A   Overcast
10:47 AM 59.0 °F - 55.4 °F 88% 29.77 in 7.0 mi SSW 8.1 mph - N/A   Overcast
11:07 AM 59.0 °F - 55.4 °F 88% 29.78 in 7.0 mi SW 10.4 mph - N/A   Mostly Cloudy
11:27 AM 60.8 °F - 55.4 °F 82% 29.77 in 7.0 mi SW 11.5 mph - N/A   Overcast
11:47 AM 62.6 °F - 55.4 °F 77% 29.77 in 10.0 mi SW 10.4 mph - N/A   Overcast
12:07 PM 62.6 °F - 55.4 °F 77% 29.75 in 7.0 mi WSW 12.7 mph - N/A   Overcast
12:27 PM 62.6 °F - 53.6 °F 72% 29.74 in 10.0 mi WSW 10.4 mph 23.0 mph N/A   Mostly Cloudy
12:47 PM 62.6 °F - 53.6 °F 72% 29.74 in 10.0 mi WSW 10.4 mph 17.3 mph N/A   Mostly Cloudy
1:07 PM 62.6 °F - 53.6 °F 72% 29.74 in 10.0 mi WSW 12.7 mph 17.3 mph N/A   Overcast
1:27 PM 62.6 °F - 53.6 °F 72% 29.74 in 10.0 mi WSW 11.5 mph 17.3 mph N/A   Overcast
1:47 PM 62.6 °F - 53.6 °F 72% 29.75 in 10.0 mi WSW 11.5 mph 19.6 mph N/A   Overcast
2:07 PM 62.6 °F - 53.6 °F 72% 29.74 in 10.0 mi WNW 9.2 mph - N/A   Overcast
2:27 PM 60.8 °F - 53.6 °F 77% 29.76 in 7.0 mi NW 11.5 mph - N/A   Overcast
2:47 PM 59.0 °F - 53.6 °F 82% 29.76 in 7.0 mi NW 8.1 mph - N/A   Overcast
3:07 PM 59.0 °F - 53.6 °F 82% 29.77 in 7.0 mi NW 9.2 mph - N/A   Mostly Cloudy
3:27 PM 57.2 °F - 51.8 °F 82% 29.80 in 7.0 mi WNW 6.9 mph - N/A   Mostly Cloudy
3:47 PM 57.2 °F - 51.8 °F 82% 29.80 in 5.0 mi NNW 10.4 mph - N/A   Mostly Cloudy
4:08 PM 53.6 °F - 50.0 °F 88% 29.80 in 5.0 mi NNW 9.2 mph - N/A   Scattered Clouds
4:27 PM 53.6 °F - 50.0 °F 88% 29.82 in 5.0 mi NNW 11.5 mph - N/A   Scattered Clouds
4:47 PM 51.8 °F - 48.2 °F 88% 29.82 in 5.0 mi NNW 9.2 mph - N/A   Mostly Cloudy
5:07 PM 50.0 °F - 46.4 °F 87% 29.84 in 5.0 mi NNW 12.7 mph - N/A   Overcast
5:27 PM 48.2 °F - 44.6 °F 87% 29.85 in 7.0 mi NNW 9.2 mph - N/A   Overcast
5:48 PM 46.4 °F 39.8 °F 39.2 °F 76% 29.85 in 10.0 mi NNW 16.1 mph - N/A   Mostly Cloudy
6:07 PM 44.6 °F 39.2 °F 37.4 °F 76% 29.85 in 10.0 mi North 10.4 mph - N/A   Mostly Cloudy
6:27 PM 44.6 °F 40.2 °F 35.6 °F 71% 29.88 in 10.0 mi NW 8.1 mph - N/A   Overcast
6:47 PM 44.6 °F 39.7 °F 35.6 °F 71% 29.88 in 10.0 mi NNW 9.2 mph - N/A   Overcast
7:07 PM 44.6 °F 43.1 °F 37.4 °F 76% 29.90 in 10.0 mi West 3.5 mph - N/A   Light Drizzle
7:27 PM 42.8 °F 37.5 °F 35.6 °F 76% 29.91 in 7.0 mi NW 9.2 mph - N/A Rain Light Rain
7:47 PM 42.8 °F 40.1 °F 37.4 °F 81% 29.90 in 5.0 mi NW 4.6 mph - N/A Rain Rain
8:07 PM 41.0 °F 38.0 °F 37.4 °F 87% 29.86 in 5.0 mi North 4.6 mph - N/A Rain Rain
8:27 PM 41.0 °F 33.5 °F 37.4 °F 87% 29.86 in 7.0 mi NNW 13.8 mph - N/A Rain Light Rain
8:47 PM 41.0 °F 35.2 °F 37.4 °F 87% 29.87 in 7.0 mi NNW 9.2 mph - N/A   Overcast
9:07 PM 39.2 °F 33.6 °F 35.6 °F 87% 29.86 in 5.0 mi North 8.1 mph - N/A Rain Rain
9:27 PM 39.2 °F 32.5 °F 35.6 °F 87% 29.85 in 7.0 mi NNW 10.4 mph - N/A   Overcast
9:47 PM 39.2 °F 34.2 °F 35.6 °F 87% 29.86 in 7.0 mi NNW 6.9 mph - N/A   Overcast
10:07 PM 39.2 °F 32.0 °F 35.6 °F 87% 29.86 in 5.0 mi NNW 11.5 mph - N/A   Overcast
10:27 PM 39.2 °F 31.6 °F 35.6 °F 87% 29.86 in 5.0 mi NNW 12.7 mph 19.6 mph N/A   Overcast
10:47 PM 39.2 °F 31.2 °F 35.6 °F 87% 29.87 in 5.0 mi NNW 13.8 mph - N/A   Overcast
11:07 PM 37.4 °F 29.8 °F 35.6 °F 93% 29.88 in 5.0 mi NNW 11.5 mph 19.6 mph N/A   Light Drizzle
11:28 PM 37.4 °F 29.8 °F 35.6 °F 93% 29.89 in 3.0 mi NNW 11.5 mph 17.3 mph N/A   Light Drizzle
11:47 PM 37.4 °F 29.8 °F 35.6 °F 93% 29.89 in 4.0 mi NNW 11.5 mph - N/A   Light Drizzle